Weather History for KFNT - March, 2014

Change the Weather History Date:

Wednesday, March 5, 2014

  Actual Average Record
Temperature  
Mean Temperature 15 °F 30 °F  
Max Temperature 23 °F 39 °F 66 °F (2004)
Min Temperature 7 °F 21 °F -10 °F (1948)
Degree Days  
Heating Degree Days 50 35  
Month to date heating degree days 278 178  
Since 1 July heating degree days 5799 5266  
Cooling Degree Days 0 0  
Month to date cooling degree days 0 0  
Year to date cooling degree days 0 0  
Moisture  
Dew Point 6 °F    
Average Humidity 63    
Maximum Humidity 80    
Minimum Humidity 45    
Precipitation  
Precipitation T in 0.06 in 0.71 in (2011)
Month to date precipitation 0.35 0.28  
Year to date precipitation 4.36 3.39  
Snow  
Snow T in 0.20 in 6.10 in (1999)
Month to date snowfall 4.1 1.4  
Since 1 July snowfall 77.3 40.0  
Snow Depth 16.00 in    
Sea Level Pressure  
Sea Level Pressure 30.45 in    
Wind  
Wind Speed 7 mph (NE)    
Max Wind Speed 17 mph    
Max Gust Speed 19 mph    
Visibility 9 miles    
Events Snow    
T = Trace of Precipitation, MM = Missing Value Source: NWS Daily Summary

Daily Weather History Graph

Daily Weather History Graph

Search for Another Location

Airport or City:

Trip Planner

Search our weather history database for the weather conditions in past years. The results will help you decide how hot, cold, wet, or windy it might be!

Date:

Astronomy

Mar. 05, 2014 Rise Set
Actual Time 7:04 AM EST 6:29 PM EST
Civil Twilight 6:35 AM EST 6:57 PM EST
Nautical Twilight 6:03 AM EST 7:30 PM EST
Astronomical Twilight 5:30 AM EST 8:03 PM EST
Moon 9:21 AM EST (3/5) 11:45 PM EST (3/5)
Length of Visible Light 12h 21m
Length of Day
11h 25m
Waxing Crescent, 23% of the Moon is Illuminated
Mar 5
Waxing Crescent
Mar 8
First Quarter
Mar 16
Full
Mar 23
Last Quarter
Mar 30
New

Hourly Weather History & Observations

Time (EST) Temp. Windchill Dew Point Humidity Pressure Visibility Wind Dir Wind Speed Gust Speed Precip Events Conditions
12:53 AM 18.0 °F - 3.9 °F 54% 30.30 in 10.0 mi Calm Calm - N/A   Overcast
1:53 AM 18.0 °F - 3.0 °F 52% 30.30 in 10.0 mi Calm Calm - N/A   Overcast
2:53 AM 16.0 °F - 1.9 °F 54% 30.30 in 10.0 mi Calm Calm - N/A   Overcast
3:48 AM 12.2 °F - 3.2 °F 67% 30.24 in 10.0 mi Calm Calm - N/A   Mostly Cloudy
3:53 AM 12.0 °F - 1.9 °F 64% 30.30 in 10.0 mi Calm Calm - N/A   Mostly Cloudy
4:53 AM 14.0 °F 8.2 °F 3.9 °F 64% 30.33 in 10.0 mi WNW 3.5 mph - N/A   Overcast
5:40 AM 15.1 °F 7.7 °F 5.0 °F 64% 30.31 in 10.0 mi NNW 4.6 mph - N/A   Scattered Clouds
5:53 AM 14.0 °F 5.1 °F 5.0 °F 67% 30.37 in 10.0 mi NNW 5.8 mph - N/A   Clear
6:53 AM 12.9 °F 6.9 °F 6.1 °F 74% 30.39 in 8.0 mi North 3.5 mph - N/A   Clear
7:53 AM 12.9 °F 3.8 °F 7.0 °F 77% 30.40 in 10.0 mi North 5.8 mph - N/A   Clear
8:53 AM 16.0 °F 4.4 °F 9.0 °F 74% 30.43 in 10.0 mi NNE 9.2 mph - N/A   Clear
9:49 AM 15.8 °F 4.2 °F 8.6 °F 73% 30.40 in 8.0 mi North 9.2 mph - N/A   Mostly Cloudy
9:53 AM 16.0 °F 4.4 °F 9.0 °F 74% 30.45 in 6.0 mi NE 9.2 mph - N/A   Haze
10:53 AM 18.0 °F 5.4 °F 10.0 °F 71% 30.46 in 10.0 mi NE 11.5 mph - N/A   Overcast
11:53 AM 19.9 °F 10.1 °F 10.0 °F 65% 30.48 in 10.0 mi NE 8.1 mph - N/A   Overcast
12:53 PM 19.9 °F 11.1 °F 10.0 °F 65% 30.49 in 5.0 mi ENE 6.9 mph - N/A   Haze
1:53 PM 21.0 °F 12.4 °F 10.9 °F 65% 30.48 in 8.0 mi NE 6.9 mph - 0.00 in   Overcast
2:53 PM 21.0 °F 7.6 °F 10.9 °F 65% 30.49 in 3.0 mi NE 15.0 mph - 0.54 in Snow Light Snow
3:42 PM 21.0 °F 8.6 °F 7.0 °F 55% 30.46 in 10.0 mi ENE 12.7 mph - 0.00 in   Overcast
3:53 PM 21.9 °F 11.7 °F 7.0 °F 53% 30.51 in 10.0 mi East 9.2 mph - 0.00 in   Overcast
4:53 PM 19.9 °F 6.7 °F 7.0 °F 57% 30.52 in 10.0 mi ENE 13.8 mph - N/A   Overcast
5:53 PM 19.0 °F 5.6 °F 5.0 °F 54% 30.53 in 10.0 mi ENE 13.8 mph - N/A   Mostly Cloudy
6:23 PM 18.0 °F 4.2 °F 6.1 °F 60% 30.49 in 10.0 mi ENE 13.8 mph - N/A   Mostly Cloudy
6:34 PM 17.1 °F 5.0 °F 5.0 °F 59% 30.50 in 10.0 mi ENE 10.4 mph - N/A   Scattered Clouds
6:53 PM 17.1 °F 5.0 °F 5.0 °F 59% 30.56 in 10.0 mi ENE 10.4 mph - N/A   Clear
7:53 PM 14.0 °F 3.9 °F 1.9 °F 59% 30.57 in 10.0 mi East 6.9 mph - N/A   Clear
8:53 PM 14.0 °F -0.2 °F 5.0 °F 67% 30.57 in 10.0 mi ENE 12.7 mph - N/A   Clear
9:34 PM 12.0 °F -0.4 °F 5.0 °F 73% 30.52 in 10.0 mi East 9.2 mph - N/A   Mostly Cloudy
9:51 PM 10.4 °F -1.5 °F 5.0 °F 79% 30.52 in 10.0 mi East 8.1 mph - N/A   Scattered Clouds
9:53 PM 10.9 °F -0.8 °F 5.0 °F 77% 30.57 in 10.0 mi ENE 8.1 mph - N/A   Scattered Clouds
10:53 PM 9.0 °F -2.2 °F 3.9 °F 80% 30.57 in 10.0 mi ENE 6.9 mph - N/A   Clear
11:53 PM 8.1 °F -3.2 °F 3.9 °F 83% 30.56 in 9.0 mi ENE 6.9 mph - N/A   Clear